Regional Weather Roundup
Issued by NWS Wakefield, VA

Home | Current Version | Previous Version | Text Only | Print | Product List | Glossary Off
Versions: 1 2 3 4 5 6 7 8 9 10 11 12 13 14 15 16 17 18 19 20 21 22 23 24 25 26 27 28 29 30 31 32 33 34 35 36 37 38 39 40 41 42 43 44 45 46 47 48 49 50

000
ASUS41 KAKQ 240515
RWRAKQ

REGIONAL WEATHER ROUNDUP
NATIONAL WEATHER SERVICE WAKEFIELD VA
100 AM EDT SUN MAY 24 2015

Note: "fair" indicates few or no clouds below 12,000 feet with no
significant weather and/or obstructions to visibility. * = Denotes
station may not report precipitation (e.g., rain,snow,etc.),
thunder or fog.

VAZ042-051-052>054-056-240600-
NORTHERN VIRGINIA

CITY           SKY/WX    TMP DP  RH WIND       PRES   REMARKS
WASH NATIONAL  CLEAR     61  45  55 S9        30.39F
DULLES         CLEAR     56  45  66 CALM      30.39R
FORT BELVOIR   CLEAR     51  48  87 CALM      30.39S
QUANTICO       PTCLDY    64  48  56 S14       30.40S
FREDERICKSBRG* PTCLDY    59  49  68 CALM      30.38F
STAFFORD*      MOCLDY    50  47  89 CALM      30.43S
WARRENTON      PTCLDY    52  49  92 CALM      30.38S
CULPEPER*      CLOUDY    51  48  92 CALM      30.40S
MANASSAS*        N/A    N/A N/A N/A MISG        N/A
LEESBURG*      CLEAR     54  48  82 SW3       30.39S
WINCHESTER     CLEAR     52  43  71 CALM      30.37R
FRONT ROYAL*   FAIR      54  48  82 CALM      30.36S
LURAY*         FAIR      54  54 100 CALM      30.38S
$$

VAZ048-049-060>072-079>083-240600-
CENTRAL AND SOUTH CENTRAL VIRGINIA

CITY           SKY/WX    TMP DP  RH WIND       PRES   REMARKS
RICHMOND       PTCLDY    58  50  75 SE3       30.40S
CHESTERFIELD*  NOT AVBL
PETERSBURG*    CLEAR     58  51  78 CALM      30.40F
HANOVER        CLOUDY    58  50  75 CALM      30.41S
TAPPAHANNOCK*  CLEAR     56  46  69 S3        30.41S
QUINTON*       MOCLDY    57  50  77 S7        30.41S
CHARLOTTSVILLE CLEAR     56  49  77 CALM      30.38S
GORDONSVILLE*  FAIR      53  49  87 CALM      30.38S
ORANGE*        CLOUDY    59  52  77 CALM      30.40S
LOUISA*        PTCLDY    59  48  67 SE5       30.37F
BUMPASS*       FAIR      56  49  76 SE5       30.38F
FARMVILLE*     CLEAR     54  54 100 CALM      30.37S
CREWE*         FAIR      53  52  94 CALM      30.39S
FORT PICKETT*  NOT AVBL
CHASE CITY*    FAIR      58  54  85 CALM      30.38S
CLARKSVILLE*   FAIR      59  52  77 CALM      30.37S
SOUTH HILL*    CLEAR     58  52  80 CALM      30.45S
LAWRENCEVILLE* FAIR      57  54  88 SE3       30.39S
EMPORIA*       CLEAR     54  50  87 CALM      30.42S
$$

VAZ088>098-240600-
SOUTHEAST VIRGINIA

CITY           SKY/WX    TMP DP  RH WIND       PRES   REMARKS
NORFOLK        CLEAR     59  49  69 S5        30.41S
VIRGINIA BEACH PTCLDY    58  51  78 SE3       30.40F
NORFOLK NAVAL  CLEAR     63  49  60 SE5       30.42F
WEST POINT*    CLEAR     58  50  76 CALM      30.42S
SALUDA*        FAIR      57  51  80 S8        30.40F
NEWPORT NEWS   CLEAR     58  48  69 CALM      30.41F
LANGLEY AFB    CLEAR     60  46  59 S5        30.40F
FORT EUSTIS    CLEAR     59  48  67 SE6       30.38F
WILLIAMSBURG*  CLEAR     63  55  77 S7        30.41F
HR EXEC AP*    FAIR      48  45  87 CALM      30.43F
FRANKLIN*      CLEAR     54  47  79 CALM      30.42S
WAKEFIELD      CLEAR     57  47  69 CALM      30.41F
$$

VAZ020-022-025-037-045-240600-
WEST CENTRAL AND SOUTHWEST VIRGINIA

CITY           SKY/WX    TMP DP  RH WIND       PRES   REMARKS
STAUNTON*      CLEAR     53  49  85 CALM      30.40S
WAYNESBORO*    FAIR      54  48  82 SW5       30.39S
HOT SPRINGS VA CLEAR     56  45  64 SW7       30.43S
LYNCHBURG      CLEAR     53  49  86 CALM      30.39S
DANVILLE       CLEAR     55  51  86 CALM      30.37F
SOUTH BOSTON*  FAIR      53  51  93 CALM      30.37S
MARTINSVILLE   CLEAR     52  52 100 CALM      30.41S
ROANOKE        CLEAR     58  50  75 CALM      30.40S
BLACKSBURG     CLEAR     51  48  90 CALM      30.44F
DUBLIN*        CLEAR     54  50  86 CALM      30.42S
MARION*        CLEAR     58  43  57 CALM      30.43S
HILLSVILLE*    CLEAR     58  46  64 S6        30.42S
RICHLANDS*     FAIR      64  42  45 S3        30.39S
WISE*          CLEAR     63  43  48 S5        30.38S
ABINGDON*      CLEAR     58  47  65 CALM      30.37S
$$

MDZ021>025-VAZ099-100-240600-
SOUTHERN MARYLAND AND THE DELMARVA PENINSULA

CITY           SKY/WX    TMP DP  RH WIND       PRES   REMARKS
PATUXENT RIVER CLEAR     58  47  66 S6        30.39F
BAY BRIDGE APT   N/A    N/A N/A N/A S3        30.39F
LEONARDTOWN    CLEAR     54  43  66 CALM      30.42S
DOVER          CLEAR     52  51  97 S6        30.36S
GEORGETOWN     CLEAR     50  47  89 CALM      30.41F
EASTON         CLEAR     55  47  75 CALM      30.43F
CAMBRIDGE      CLEAR     52  48  87 CALM      30.40S
SALISBURY      CLEAR     50  46  86 CALM      30.41S
OCEAN CITY     CLEAR     57  50  77 SW7       30.41F
WALLOPS ISLAND CLEAR     55  50  83 S8        30.42S
ACCOMACK*      CLEAR     52  50  93 SE5       30.41F
$$

NCZ012>017-030>032-240600-
NORTH CENTRAL AND EASTERN NORTH CAROLINA

CITY           SKY/WX    TMP DP  RH WIND       PRES   REMARKS
ROANOKE RAPIDS FAIR      57  52  82 CALM      30.40S
RALEIGH        PTCLDY    63  51  65 SE6       30.38F
ELIZABETH CITY CLEAR     59  54  83 SE5       30.41F
AHOSKIE*       CLEAR     56  48  74 SE3       30.41F
EDENTON*       CLEAR     60  54  79 SE5       30.41F
CURRITUCK*     CLEAR     58  52  80 CALM      30.42F
KILL DEVIL HLS CLEAR     61  55  82 E5        30.40F
MANTEO         CLEAR     61  55  83 E8        30.42F
CAPE HATTERAS  CLEAR     61  55  81 NE7       30.40F
TARBORO*       FAIR      59  52  77 CALM      30.41S
GOLDSBORO      NOT AVBL
WASHINGTON     CLEAR     59  51  73 CALM      30.40F
GREENVILLE     CLEAR     63  52  67 S3        30.40S
NEW BERN       CLEAR     63  54  72 CALM      30.40F
WILMINGTON     CLEAR     62  59  90 NE5       30.37F
$$

VAZ048-240600-
ELSEWHERE

CITY           SKY/WX    TMP DP  RH WIND       PRES   REMARKS
HARRISBURG PA  PTCLDY    57  39  51 NE5       30.37S
BALTIMORE      CLEAR     53  44  71 CALM      30.38F
ANNAPOLIS      CLEAR     59  42  53 CALM      30.38S
ANDREWS AFB    CLEAR     53  44  71 S7        30.38S
PHILADELPHIA   PTCLDY    57  48  72 SW3       30.39S
HENDERSON NC   CLEAR     61  50  67 S7        30.38S
GREENSBORO     PTCLDY    63  47  55 S3        30.37S
ROCKY MOUNT    CLEAR     62  53  72 SE3       30.40R
$$

VAZ100-240600-
MARINE

STATION/POSITION TIME  TEMP    WIND        PRES    WAVE   SWELL
                       AIR SEA DIR/SP/G            HT/PER HT/PER
                 (UTC) (F)     (DEG/KT/KT) (MB)    (FT/S) (FT/S)
BRANDYWINE LGT   0400   57 63  210/ 16/ 18 1029.6F
CAPE MAY NJ      0400   57 67  200/  5/  9 1029.3F
LEWES DE         0400   54 63  200/  7/  9 1029.6F
15NM E FENWICK I 0450   58 59              1029.6F   2/ 9
OCEAN-CITY-INLET 0400   59 61  200/  9/ 12 1029.7F
WACHAPREAGUE VA  0400   61 68  180/  8/ 11 1030.2F
THOMAS POINT MD  0500   64 65  200/ 10/ 11 1029.4F
GOOSES REEF MD   0500   64 65  210/ 12/ 14 1029.9F   1
SOLOMONS ISLAND  0400      68                N/A
BISHOPS HEAD MD  0400   63 68  180/ 12/ 14 1029.2S
PINEY POINT MD   0400          190/ 12/ 13   N/A
CAMBRIDGE MD     0400   57 71  160/  4/  6 1029.2F
LEWISETTA VA     0400   60 69              1029.3R
RAPPAHANNOCK LGT 0400          160/ 12/ 14 1030.5S
STINGRAY PT      0500   65 69  180/ 14/ 16 1028.8F   2/ 3
YORK RVR RNG VA  0400   63     190/ 11/ 13 1029.2F
YORKTOWN VA      0400   61 70  170/  6/  9 1029.5F
JAMESTOWN VA     0500   61 73  180/ 10/ 14 1028.7F
DOMINION TERM VA 0400   64     140/  9/ 11 1029.9F
KIPTOPEKE VA     0400      73  150/  6/  7   N/A
CHES BAY BRIDGE  0400   62 67  140/ 11/ 13 1029.6F
CAPE HENRY VA    0400   60     160/  7/  9 1028.7F
CHESAPEAKE LGHT  0400   61     150/ 12/ 12 1030.8F
WILLOUBY STN VA  0400   61     150/ 11/ 12 1030.4F
CAPE HENRY BUOY  0428      62                N/A     2/ 6
1ST LANDING BUOY 0500      67              1029.2F
CAPE CHARLES BUO 0426      65                N/A     2/ 5   2/ 6
OFFSHORE WE BUOY 0411      60                N/A     2/ 6   2/ 6
64NM E OF VA BCH 0450   62 60  120/  6/  6 1029.8F   2/ 6   2/ 6
DUCK PIER NC     0400   62 64  110/ 11/ 13 1029.2S
44100 DUCK FRF   0424      62                N/A     2/ 5
44056 DUCK FRF   0411      63                N/A     2/ 5
OREGON INLET NC  0400   62 72   80/  7/ 10 1030.0F
HATTERAS NC      0400   65 74   60/  5/  8 1029.1F
DIAMOND SHLS NC  0450   72 78  100/  8/ 10 1029.2F   3/ 8   2/ 8
CAPE LOOKOUT NC  0500   71      50/ 10/ 11 1028.6F
$$



USA.gov is the U.S. government's official web portal to all federal, state and local government web resources and services.